Location: Newark
(39.8867°N, 94.3600°W)
Time: 16:14:24
(UTC+00:00)

N. Korean satellite - Pass Details

Date: 29 January 2020
Orbit: 456 x 506 km, 97.2° (Epoch: 17 February)

Event Time Altitude Azimuth Distance (km) Brightness Sun altitude
Rises 11:52:34 0° 15° (NNE) 2,555 10.3 -18.6°
Reaches altitude 10° 11:54:39 10° 19° (NNE) 1,679 9.4 -18.2°
Maximum altitude 11:58:14 60° 100° (E) 569 7.1 -17.5°
Drops below altitude 10° 12:01:50 10° 181° (S) 1,691 9.4 -16.8°
Sets 12:03:56 0° 185° (S) 2,575 10.3 -16.4°
